Weather History for Monterey, CA

Change the Weather History Date:

Sunday, December 2, 2012

  Actual Average Record
Temperature  
Mean Temperature 58 °F 52 °F  
Max Temperature 65 °F 62 °F 69 °F (2006)
Min Temperature 50 °F 43 °F 36 °F (2004)
Degree Days  
Heating Degree Days 7    
Month to date heating degree days 12  
Since 1 July heating degree days 943  
Cooling Degree Days 0    
Month to date cooling degree days 0  
Year to date cooling degree days 36  
Growing Degree Days 8 (Base 50)    
Moisture  
Dew Point 57 °F    
Average Humidity 87    
Maximum Humidity 100    
Minimum Humidity 73    
Precipitation  
Precipitation 1.05 in - 1.05 in (2012)
Month to date precipitation 1.13  
Year to date precipitation 12.96  
Since 1 July precipitation 5.31  
Sea Level Pressure  
Sea Level Pressure 30.00 in    
Wind  
Wind Speed 8 mph (SSW)    
Max Wind Speed 26 mph    
Max Gust Speed 43 mph    
Visibility 6 miles    
Events Rain    
T = Trace of Precipitation, MM = Missing Value Source: NWS Daily Summary

Daily Weather History Graph

Daily Weather History Graph

Search for Another Location

Airport:

Trip Planner

Search our weather history database for the weather conditions in past years. The results will help you decide how hot, cold, wet, or windy it might be!

Date:

Astronomy

Dec. 02, 2012 Rise Set
Actual Time 7:02 AM PST 4:51 PM PST
Civil Twilight 6:33 AM PST 5:20 PM PST
Nautical Twilight 6:01 AM PST 5:52 PM PST
Astronomical Twilight 5:30 AM PST 6:23 PM PST
Moon 8:41 PM PST (12/2) 9:57 AM PST (12/2)
Length of Visible Light 10h 46m
Length of Day
9h 49m
Waning Gibbous, 85% of the Moon is Illuminated
Dec 2
Waning Gibbous
Dec 6
Last Quarter
Dec 13
New
Dec 19
First Quarter
Dec 28
Full

Hourly Weather History & Observations

Time (PST) Temp. Dew Point Humidity Pressure Visibility Wind Dir Wind Speed Gust Speed Precip Events Conditions
12:54 AM 64.9 °F 57.0 °F 75% 29.99 in 10.0 mi SSE 10.4 mph 19.6 mph N/A   Overcast
1:54 AM 63.0 °F 59.0 °F 87% 29.99 in 6.0 mi SSE 8.1 mph - N/A   Overcast
2:13 AM 62.6 °F 59.0 °F 88% 29.96 in 3.0 mi South 6.9 mph - 0.02 in   Overcast
2:54 AM 63.0 °F 59.0 °F 87% 29.98 in 4.0 mi South 10.4 mph 21.9 mph 0.05 in   Overcast
3:24 AM 62.6 °F 59.0 °F 88% 29.95 in 2.0 mi SSW 16.1 mph 25.3 mph 0.01 in   Overcast
3:43 AM 62.6 °F 59.0 °F 88% 29.95 in 5.0 mi South 11.5 mph 25.3 mph 0.02 in   Overcast
3:54 AM 63.0 °F 59.0 °F 87% 29.98 in 8.0 mi South 12.7 mph 23.0 mph 0.02 in   Overcast
4:39 AM 62.6 °F 59.0 °F 88% 29.94 in 10.0 mi South 13.8 mph 32.2 mph N/A   Overcast
4:54 AM 63.0 °F 57.9 °F 84% 29.95 in 10.0 mi South 17.3 mph 25.3 mph N/A   Overcast
5:13 AM 62.6 °F 57.2 °F 82% 29.92 in 10.0 mi South 15.0 mph 25.3 mph N/A   Overcast
5:27 AM 62.6 °F 57.2 °F 82% 29.93 in 10.0 mi South 13.8 mph 28.8 mph N/A   Scattered Clouds
5:54 AM 64.0 °F 55.9 °F 75% 29.96 in 10.0 mi SSE 15.0 mph 26.5 mph N/A   Mostly Cloudy
6:54 AM 62.1 °F 57.9 °F 86% 29.96 in 8.0 mi South 16.1 mph 32.2 mph 0.02 in   Overcast
7:52 AM 62.6 °F 57.2 °F 82% 29.90 in 6.0 mi South 23.0 mph 32.2 mph 0.00 in Rain Light Rain
7:54 AM 63.0 °F 57.9 °F 84% 29.94 in 5.0 mi South 21.9 mph 32.2 mph 0.00 in Rain Light Rain
8:54 AM 63.0 °F 57.0 °F 81% 29.95 in 6.0 mi South 19.6 mph 31.1 mph 0.06 in   Haze
9:54 AM 64.0 °F 59.0 °F 84% 29.94 in 4.0 mi SSE 15.0 mph 34.5 mph 0.21 in Rain Rain
10:18 AM 62.6 °F 59.0 °F 88% 29.91 in 2.0 mi South 18.4 mph 34.5 mph 0.10 in Rain Rain
10:25 AM 64.4 °F 59.0 °F 83% 29.92 in 1.8 mi South 21.9 mph 34.5 mph 0.14 in Rain Rain
10:54 AM 64.0 °F 60.1 °F 87% 29.96 in 1.8 mi South 19.6 mph 41.4 mph 0.33 in Rain Rain
10:57 AM 64.4 °F 60.8 °F 88% 29.93 in 3.0 mi South 19.6 mph 35.7 mph 0.01 in Rain Rain
11:14 AM 64.4 °F 60.8 °F 88% 29.93 in 2.5 mi South 20.7 mph 40.3 mph 0.10 in Rain Rain
11:21 AM 64.4 °F 60.8 °F 88% 29.93 in 4.0 mi South 23.0 mph 35.7 mph 0.11 in Rain Rain
11:54 AM 62.1 °F 60.1 °F 93% 29.99 in 3.0 mi SW 16.1 mph 31.1 mph 0.19 in Rain Rain
11:56 AM 62.6 °F 60.8 °F 94% 29.96 in 1.5 mi WSW 23.0 mph 31.1 mph 0.04 in Rain Rain
12:00 PM 60.8 °F 57.2 °F 88% 29.96 in 0.8 mi West 16.1 mph 28.8 mph 0.09 in Rain Rain
12:06 PM 57.2 °F 55.4 °F 94% 29.97 in 1.0 mi West 12.7 mph 21.9 mph 0.10 in Rain Rain
12:19 PM 57.2 °F 55.4 °F 94% 29.97 in 2.5 mi West 6.9 mph - 0.14 in Rain Rain
12:26 PM 57.2 °F 55.4 °F 94% 29.97 in 5.0 mi West 6.9 mph - 0.14 in Rain Rain
12:54 PM 57.9 °F 55.9 °F 93% 30.00 in 4.0 mi WSW 5.8 mph - 0.14 in Rain Light Rain
1:02 PM 57.2 °F 55.4 °F 94% 29.97 in 4.0 mi SSW 6.9 mph - 0.00 in Rain Light Rain
1:23 PM 57.2 °F 57.2 °F 100% 29.98 in 10.0 mi SSW 4.6 mph - 0.00 in Rain Light Rain
1:39 PM 57.2 °F 57.2 °F 100% 29.98 in 6.0 mi Calm Calm - 0.00 in Rain Light Rain
1:54 PM 57.9 °F 57.0 °F 97% 30.03 in 2.5 mi SSW 3.5 mph - 0.01 in Rain Light Rain
2:03 PM 57.2 °F 57.2 °F 100% 29.99 in 3.0 mi SW 3.5 mph - 0.01 in Rain Light Rain
2:06 PM 57.2 °F 57.2 °F 100% 29.99 in 2.5 mi Calm Calm - 0.01 in Rain Light Rain
2:12 PM 57.2 °F 57.2 °F 100% 29.99 in 3.0 mi SSW 3.5 mph - 0.02 in Rain Light Rain
2:25 PM 57.2 °F 55.4 °F 94% 30.00 in 5.0 mi SSW 3.5 mph - 0.02 in   Overcast
2:37 PM 57.2 °F 55.4 °F 94% 30.00 in 10.0 mi Calm Calm - 0.02 in   Overcast
2:47 PM 57.2 °F - N/A% 30.00 in 10.0 mi Calm Calm - 0.02 in   Overcast
2:50 PM 57.2 °F - N/A% 30.01 in 10.0 mi Calm Calm - 0.02 in   Overcast
2:54 PM 59.0 °F - N/A% 30.04 in 10.0 mi Calm Calm - 0.02 in   Overcast
3:54 PM 59.0 °F - N/A% 30.05 in 10.0 mi Calm Calm - N/A   Scattered Clouds
4:54 PM 55.9 °F - N/A% 30.06 in 10.0 mi Calm Calm - N/A   Partly Cloudy
5:54 PM 54.0 °F - N/A% 30.06 in 10.0 mi Calm Calm - N/A   Clear
6:37 PM 53.6 °F - N/A% 30.04 in 10.0 mi Calm Calm - N/A   Mostly Cloudy
6:54 PM 53.1 °F - N/A% 30.08 in 9.0 mi Calm Calm - N/A   Overcast
7:37 PM 53.6 °F - N/A% 30.05 in 10.0 mi SSW 4.6 mph - N/A   Scattered Clouds
7:54 PM 53.1 °F 53.1 °F 100% 30.08 in 10.0 mi Calm Calm - N/A   Clear
8:54 PM 52.0 °F 52.0 °F 100% 30.09 in 10.0 mi SE 3.5 mph - N/A   Clear
9:30 PM 53.6 °F 51.8 °F 94% 30.07 in 10.0 mi Calm Calm - N/A   Mostly Cloudy
9:54 PM 52.0 °F 50.0 °F 93% 30.11 in 10.0 mi East 3.5 mph - N/A   Scattered Clouds
10:35 PM 51.8 °F 50.0 °F 94% 30.10 in 10.0 mi Calm Calm - N/A   Mostly Cloudy
10:41 PM 51.8 °F 50.0 °F 94% 30.10 in 10.0 mi Calm Calm - N/A   Mostly Cloudy
10:54 PM 53.1 °F 52.0 °F 96% 30.16 in 10.0 mi Calm Calm - N/A   Overcast
11:50 PM 53.6 °F 51.8 °F 94% 30.11 in 9.0 mi Calm Calm - N/A   Mostly Cloudy
11:54 PM 53.1 °F 52.0 °F 96% 30.14 in 9.0 mi Calm Calm - N/A   Mostly Cloudy